Location: Stara Lesna
(49.1528°N, 20.2911°E)
Time: 09:07:32
(UTC+02:00)

Cosmos 2344 - Pass Details

Date: 21 September 2019
Orbit: 1260 x 2982 km, 63.3° (Epoch: 18 October)

Event Time Altitude Azimuth Distance (km) Brightness Sun altitude
Exits shadow 02:34:31 50° 130° (SE) 1,590 3.9 -33.5°
Maximum altitude 02:34:56 50° 119° (ESE) 1,586 4.0 -33.4°
Drops below altitude 10° 02:42:42 10° 47° (NE) 3,529 6.7 -32.6°
Sets 02:45:55 0° 43° (NE) 4,670 7.7 -32.3°
